sat.trackr.live / text

‹ back to catalog

KUIPER-00234

NORAD 68581 · 2026-072J

PAYLOAD ACTIVE UNKNOWN

§ Identity

Operator
Country
US
Launch date
2026-04-04
Launch site
AFETR
Launch vehicle
Mass (kg)
RCS (m²)

External: N2YO · Heavens-Above · Gunter

§ Orbital elements

Epoch: 2026-05-25T04:00:03.998880Z

Period
96.61 min
Inclination
51.8942°
Eccentricity
0.0006052
Mean motion
14.90558916 rev/d
Perigee alt
592.0 km
Apogee alt
600.4 km
Semi-major
6,974.3 km
B*
-7.5610e-3
RAAN
291.6066°
Arg perigee
343.2702°
Mean anomaly
267.2504°
Rev number
506

§ Raw data

KUIPER-002341 68581U 26072J   26145.16671295 -.00074161  00000+0 -75610-2 0  99912 68581  51.8942 291.6066 0006052 343.2702 267.2504 14.90558916  5068

JSON: /api/v1/satellites/68581 · /tle

For live sub-satellite position, see the globe view (requires WebGL).

§ Visibility from observer

Set your observer location to see the next 7 days of passes ≥ 10°. The values pass through the URL so the page stays shareable.

No JS? Fill the form by hand. The geolocation button needs JavaScript.